星链-3672 (STARLINK-3672 )

导读

STARLINK-3672是美国SpaceX星链(Starlink)星座的一颗互联网卫星,于2022年3月9日由猎鹰9号火箭发射,属于星链Group 4-16组网批次,重量约297kg,部署在近地轨道,当前运行高度约548km,倾角53.2°。它是星链全球低轨宽带互联网星座的组成部分,旨在为全球提供高速卫星互联网接入服务,目前已在轨运行超4年,承担星链星座的通信组网任务。

基本信息
目录编号:
51974
目录名称:
STARLINK-3672
国际标识:
2022-025U
轨道中心:
EARTH
卫星名称:
星链-3672
卫星全名:
星链-3672 (STARLINK-3672 )
卫星状态:
在轨 (已飞行1648 天)
发射日期:
2022-03-09 UTC
国别 :
美国 (US)
星等 :
--
该卫星已列入 空间交会检测服务 Space Conjunction Data Service (SCDS) ,当前飞行风险评估等级: 无高风险
轨道信息
数据来源 国际轨道数据
星历时间: 2026-09-11T15:49:07+0800
23小时前
查看轨道信息
半长轴: 6848.888km
偏心率: 0.0001399
轨道倾角: 53.160°
近地点辐角 75.899°
升交点赤经 253.296°
平近点角 284.216°
近地点: 469.792km
远地点: 471.71km
周期: 94.013分钟
每日圈数: 15.316966
详细信息
固有亮度:
5
最大亮度:
2.5
卫星平台:
Starlink v1.5
覆盖范围:
全球
运营商:
太空探索技术公司
运营商所在国:
美国
制造商(研发单位):
太空探索技术公司
制造商所在国:
美国
使用方式:
暂无
卫星简介
星链(Starlink)计划是由太空探索技术公司(SpaceX)提出的一个巨型低轨卫星互联网星座项目,计划在2019年至2024年间在太空搭建由约1.2万颗卫星组成的“星链”网络,其中1584颗将部署在地球上空550千米处的近地轨道,并从2020年开始工作。该卫星仍在工作。
2D轨道图
3D轨道图
轨道高度分析图
轨道倾角分析图
轨道综合分析图
查看轨道综合分析图
交会数据列表
事件ID 空间交会对象 最接近时刻(TCA) 交会距离 交会风险概率(CRP) 交会风险指数(CRI) 操作
CDM_260914-134005-197406-875021
2026-09-14T
13:40:22+0000
2.679 km
极远距离
1.452564E-6 低风险 0.38
CDM_260910-162905-197406-056221
2026-09-10T
16:29:24+0000
2.537 km
极远距离
1.377228E-6 低风险 0.38
CDM_260913-114605-197406-416721
2026-09-13T
11:46:52+0000
2.612 km
极远距离
1.212783E-6 低风险 0.37
与全量物体交会距离演化趋势
与全量物体交会风险概率演化趋势